[[{"header":{"parameterUnit":"m.s-1","parameterCategory":1,"la1":30.2991,"la2":30.254,"lo1":-89.0895,"lo2":-89.0444,"dx":0.0017,"dy":0.0017,"nx":28,"ny":28,"refTime":"2023-01-30T15:00:00:Z","depth":0,"parameterNumber":2,"parameterNumberName":"U-component_of_WINDS"},"data":[0,0,0,0,0,0,0,0,0,0,0,0,0,0,0,0,0,0,0,0,0,0,0,0,0,0,0,0,0,0,0,0,0,0,0,0,0,0,0,0,0,0,0,0,0,0,0,0,0,0,0,0,0,0,0,0,0,0,-0.1603,-0.1603,0,-0.1596,-0.1596,-0.1596,-0.159,-0.159,-0.159,-0.159,-0.1583,-0.1583,-0.1583,0,0,0,0,0,0,0,0,0,0,0,0,0,-0.1611,-0.1611,-0.1603,-0.1603,-0.1603,-0.1596,-0.1596,-0.1596,-0.159,-0.159,-0.159,-0.159,-0.1583,-0.1583,-0.1583,0,0,0,0,0,0,0,0,0,0,0,0,0,-0.1606,-0.1611,-0.1603,-0.1599,-0.1599,-0.1596,-0.1596,-0.1596,-0.159,-0.159,-0.159,-0.159,-0.1583,-0.1583,-0.1583,-0.1584,0,0,-0.1582,-0.1582,0,0,0,0,0,0,0,0,-0.1607,-0.1606,-0.16,-0.16,-0.1599,-0.1594,-0.1596,-0.1592,-0.159,-0.1594,-0.159,-0.159,-0.1587,-0.1586,-0.1585,-0.1583,-0.1583,-0.1582,-0.1582,-0.1582,-0.1582,0,0,0,0,0,0,0,-0.1607,-0.1606,-0.16,-0.16,-0.1599,-0.1598,-0.1597,-0.1595,-0.1591,-0.1593,-0.1593,-0.1592,-0.1587,-0.1585,-0.1585,-0.1583,-0.1582,-0.1582,-0.1582,-0.1582,-0.1579,-0.1579,0,0,0,0,0,0,-0.1608,-0.1607,-0.1601,-0.16,-0.1603,-0.1598,-0.1597,-0.1596,-0.1591,-0.159,-0.1592,-0.1592,-0.1586,-0.1585,-0.1585,-0.1584,-0.1582,-0.1582,-0.1582,-0.1579,-0.1579,-0.1579,0,0,0,0,0,0,-0.1608,-0.1607,-0.1601,-0.1603,-0.1602,-0.1598,-0.1596,-0.1596,-0.1594,-0.159,-0.1589,-0.1592,-0.1586,-0.1585,-0.1584,-0.1584,-0.1582,-0.1582,-0.1579,-0.1579,-0.1579,-0.1584,0,0,0,0,0,0,-0.1608,-0.1608,-0.1608,-0.1603,-0.1602,-0.16,-0.1597,-0.1596,-0.1594,-0.1594,-0.1589,-0.1589,-0.1586,-0.1584,-0.1583,-0.1584,-0.1582,-0.1579,-0.1579,-0.1579,-0.1584,-0.1585,-0.1585,0,0,0,0,0,-0.1609,-0.161,-0.1608,-0.1608,-0.1603,-0.16,-0.16,-0.1596,-0.1594,-0.1594,-0.1591,-0.1589,-0.1584,-0.1584,-0.1583,-0.1584,-0.1579,-0.1579,-0.1579,-0.1584,-0.1585,-0.1585,0,0,0,0,0,0,-0.1616,-0.161,-0.1607,-0.1607,-0.1604,-0.1599,-0.16,-0.1597,-0.1594,-0.1594,-0.159,-0.1589,-0.1587,-0.1585,-0.1585,-0.1583,-0.1581,-0.1581,-0.1585,-0.1585,-0.1586,-0.1587,-0.1581,0,0,0,0,0,-0.1617,-0.1616,-0.161,-0.1611,-0.161,-0.1605,-0.1604,-0.1601,-0.1597,-0.1596,-0.1593,-0.159,-0.1587,-0.1586,-0.1584,-0.1583,-0.1582,-0.1583,-0.1584,-0.1584,-0.1584,-0.1583,-0.1583,-0.158,-0.158,-0.158,0,0,-0.1621,-0.1617,-0.1617,-0.1612,-0.161,-0.1608,-0.1604,-0.1603,-0.1601,-0.1596,-0.1594,-0.1592,-0.1588,-0.1586,-0.1586,-0.1585,-0.1585,-0.1584,-0.1585,-0.1585,-0.1583,-0.1583,-0.1583,-0.158,-0.158,-0.158,0,0,-0.1626,-0.1623,-0.1623,-0.162,-0.1616,-0.1612,-0.1612,-0.1607,-0.1605,-0.1603,-0.1598,-0.1596,-0.1593,-0.159,-0.1588,-0.1589,-0.1587,-0.1589,-0.1591,-0.159,-0.159,-0.159,-0.159,-0.1591,-0.1589,-0.1589,-0.1589,0,-0.1631,-0.1629,-0.1623,-0.1622,-0.162,-0.1614,-0.1613,-0.1611,-0.1606,-0.1604,-0.1603,-0.1597,-0.1594,-0.1592,-0.1592,-0.159,-0.159,-0.159,-0.159,-0.1591,-0.1591,-0.1591,-0.1591,-0.1589,-0.1589,-0.1589,-0.1589,0,-0.1634,-0.1632,-0.1633,-0.1627,-0.1625,-0.1624,-0.1618,-0.1616,-0.1613,-0.161,-0.1607,-0.1603,-0.1599,-0.1598,-0.1595,-0.1594,-0.1594,-0.1591,-0.1589,-0.1591,-0.1591,-0.1591,-0.1589,-0.1589,-0.1589,-0.1589,0,0,-0.1646,-0.1636,-0.1637,-0.1634,-0.1627,-0.1625,-0.1623,-0.1619,-0.1617,-0.1613,-0.1611,-0.1607,-0.1605,-0.1602,-0.1599,-0.1597,-0.1598,-0.1595,-0.1595,-0.1596,-0.1596,-0.1598,-0.1598,-0.1596,-0.1596,-0.1596,-0.1596,0,-0.165,-0.1647,-0.1641,-0.1639,-0.1637,-0.163,-0.1628,-0.1624,-0.162,-0.1617,-0.1612,-0.1609,-0.1606,-0.1605,-0.1603,-0.1598,-0.1598,-0.1598,-0.1594,-0.1594,-0.1595,-0.1598,-0.1601,-0.1602,-0.1596,-0.1596,-0.1596,0,-0.1656,-0.1651,-0.1649,-0.1641,-0.164,-0.1639,-0.1633,-0.163,-0.1625,-0.1622,-0.1618,-0.1614,-0.1611,-0.1608,-0.1603,-0.1603,-0.1601,-0.1598,-0.1598,-0.1598,-0.1596,-0.1598,-0.1602,-0.1602,-0.1596,-0.1596,-0.1596,0,-0.1664,-0.1658,-0.1655,-0.1653,-0.1644,-0.1643,-0.1639,-0.1633,-0.163,-0.1625,-0.1623,-0.1618,-0.1616,-0.1611,-0.1605,-0.1604,-0.1601,-0.1598,-0.1598,-0.1598,-0.1598,-0.1599,-0.1602,-0.1596,-0.1596,-0.1596,-0.1596,0,-0.167,-0.1669,-0.1658,-0.1657,-0.1655,-0.1648,-0.1646,-0.1641,-0.1636,-0.1633,-0.1627,-0.1624,-0.1616,-0.1612,-0.1607,-0.1604,-0.1602,-0.16,-0.1599,-0.16,-0.1601,-0.1599,-0.1599,-0.1596,-0.1596,-0.1596,-0.1596,0,-0.168,-0.1673,-0.1669,-0.1661,-0.1658,-0.1657,-0.1649,-0.1647,-0.1642,-0.1638,-0.1637,-0.1629,-0.1624,-0.1617,-0.161,-0.1607,-0.1603,-0.1601,-0.1605,-0.1605,-0.1605,-0.1605,-0.1607,-0.1607,-0.1602,-0.1602,-0.1602,0,-0.1684,-0.1683,-0.1673,-0.1671,-0.1667,-0.1663,-0.1659,-0.1652,-0.1649,-0.1641,-0.1639,-0.1633,-0.1629,-0.162,-0.1614,-0.1608,-0.1606,-0.1607,-0.1605,-0.1607,-0.1606,-0.1606,-0.1606,-0.1608,-0.1608,-0.1608,-0.1608,0,-0.1693,-0.1689,-0.1684,-0.1678,-0.1674,-0.1669,-0.1663,-0.1662,-0.1652,-0.1649,-0.1643,-0.1639,-0.1631,-0.1625,-0.1618,-0.1614,-0.1609,-0.1609,-0.1608,-0.1611,-0.1613,-0.1611,-0.1607,-0.1609,-0.1609,-0.1609,-0.1609,-0.1609,-0.17,-0.1698,-0.1691,-0.1685,-0.168,-0.1674,-0.1672,-0.1665,-0.166,-0.1653,-0.1649,-0.1643,-0.1635,-0.1625,-0.1621,-0.1616,-0.1614,-0.1614,-0.1614,-0.1614,-0.1614,-0.1613,-0.1615,-0.1615,-0.1615,-0.1614,-0.1614,0,-0.1708,-0.1702,-0.1698,-0.169,-0.1685,-0.168,-0.1673,-0.167,-0.1665,-0.1658,-0.1653,-0.1645,-0.1639,-0.1631,-0.1624,-0.1622,-0.1619,-0.162,-0.162,-0.1619,-0.1616,-0.1617,-0.1622,-0.1622,-0.1622,-0.1622,-0.1622,-0.1622,-0.1712,-0.1708,-0.1703,-0.1696,-0.169,-0.1684,-0.168,-0.1675,-0.1669,-0.1662,-0.1656,-0.1651,-0.1643,-0.1635,-0.1629,-0.1626,-0.1624,-0.1625,-0.1623,-0.162,-0.162,-0.1619,-0.162,-0.1625,-0.1625,-0.1626,-0.1626,-0.1626]},{"header":{"parameterUnit":"m.s-1","parameterCategory":1,"la1":30.2991,"la2":30.254,"lo1":-89.0895,"lo2":-89.0444,"dx":0.0017,"dy":0.0017,"nx":28,"ny":28,"refTime":"2023-01-30T15:00:00:Z","depth":0,"parameterNumber":3,"parameterNumberName":"V-component_of_WINDS"},"data":[0,0,0,0,0,0,0,0,0,0,0,0,0,0,0,0,0,0,0,0,0,0,0,0,0,0,0,0,0,0,0,0,0,0,0,0,0,0,0,0,0,0,0,0,0,0,0,0,0,0,0,0,0,0,0,0,0,0,-2.6013,-2.6012,0,-2.5961,-2.596,-2.5959,-2.592,-2.592,-2.592,-2.5919,-2.586,-2.5859,-2.5857,0,0,0,0,0,0,0,0,0,0,0,0,0,-2.6073,-2.6072,-2.6013,-2.6012,-2.6011,-2.5961,-2.596,-2.5959,-2.592,-2.592,-2.5919,-2.5919,-2.586,-2.5859,-2.5857,0,0,0,0,0,0,0,0,0,0,0,0,0,-2.6036,-2.6072,-2.6013,-2.5986,-2.5983,-2.5961,-2.596,-2.5959,-2.592,-2.592,-2.5919,-2.5919,-2.5861,-2.5859,-2.5857,-2.5855,0,0,-2.5851,-2.585,0,0,0,0,0,0,0,0,-2.6038,-2.6034,-2.5991,-2.5988,-2.5984,-2.5947,-2.5959,-2.5924,-2.5921,-2.5944,-2.5919,-2.5919,-2.5889,-2.5884,-2.5876,-2.5853,-2.585,-2.5851,-2.585,-2.5849,-2.5849,0,0,0,0,0,0,0,-2.6041,-2.6036,-2.5992,-2.599,-2.5986,-2.5975,-2.5969,-2.5953,-2.592,-2.5942,-2.5939,-2.5934,-2.5887,-2.5878,-2.5874,-2.5849,-2.5851,-2.5849,-2.5848,-2.5848,-2.5821,-2.5822,0,0,0,0,0,0,-2.6048,-2.6038,-2.5993,-2.599,-2.6011,-2.5974,-2.5968,-2.5959,-2.592,-2.5913,-2.5934,-2.5932,-2.5881,-2.5876,-2.5872,-2.5867,-2.5849,-2.5847,-2.5846,-2.5821,-2.5822,-2.5822,0,0,0,0,0,0,-2.605,-2.6045,-2.5996,-2.6014,-2.6006,-2.5974,-2.5964,-2.5958,-2.5949,-2.5914,-2.5907,-2.5931,-2.588,-2.5874,-2.586,-2.5864,-2.5847,-2.5845,-2.5821,-2.5821,-2.5822,-2.5858,0,0,0,0,0,0,-2.6052,-2.6046,-2.6046,-2.6014,-2.6006,-2.5987,-2.5965,-2.5958,-2.5947,-2.5943,-2.5909,-2.5903,-2.588,-2.5863,-2.5858,-2.5861,-2.5843,-2.582,-2.5821,-2.5822,-2.5856,-2.586,-2.5863,0,0,0,0,0,-2.6054,-2.6057,-2.6046,-2.6041,-2.6006,-2.5987,-2.5982,-2.5957,-2.5947,-2.5946,-2.5924,-2.5904,-2.5865,-2.5862,-2.5856,-2.5859,-2.582,-2.5821,-2.5822,-2.5855,-2.5859,-2.5863,0,0,0,0,0,0,-2.6088,-2.6052,-2.604,-2.6033,-2.6014,-2.5981,-2.5979,-2.5962,-2.5944,-2.5941,-2.5909,-2.5901,-2.589,-2.5873,-2.5871,-2.5855,-2.584,-2.5839,-2.5867,-2.5871,-2.5874,-2.5878,-2.5842,0,0,0,0,0,-2.6095,-2.6085,-2.6053,-2.605,-2.6041,-2.6012,-2.6003,-2.5985,-2.5963,-2.5954,-2.593,-2.5908,-2.589,-2.5879,-2.5861,-2.5853,-2.5845,-2.5852,-2.5856,-2.5858,-2.5858,-2.5852,-2.5855,-2.5825,-2.5825,-2.5825,0,0,-2.6109,-2.6088,-2.6083,-2.6056,-2.6039,-2.6028,-2.6005,-2.5994,-2.5984,-2.5952,-2.5937,-2.5919,-2.5892,-2.5881,-2.5874,-2.5866,-2.5865,-2.586,-2.5862,-2.5861,-2.5853,-2.5856,-2.5859,-2.5826,-2.5826,-2.5826,0,0,-2.6128,-2.6112,-2.6108,-2.6091,-2.6067,-2.6047,-2.6046,-2.6016,-2.6003,-2.5989,-2.5964,-2.5951,-2.5922,-2.5903,-2.589,-2.5903,-2.5884,-2.5898,-2.5915,-2.5909,-2.5911,-2.5913,-2.5917,-2.5919,-2.5898,-2.5898,-2.5898,0,-2.6148,-2.6132,-2.6107,-2.6097,-2.6086,-2.6058,-2.6052,-2.6037,-2.6007,-2.5998,-2.599,-2.5953,-2.5932,-2.5916,-2.592,-2.591,-2.5906,-2.5901,-2.5913,-2.5915,-2.5916,-2.5919,-2.5921,-2.59,-2.59,-2.5899,-2.5899,0,-2.6157,-2.6146,-2.6145,-2.6119,-2.6107,-2.6099,-2.6072,-2.6062,-2.6046,-2.6027,-2.6011,-2.5986,-2.5963,-2.5957,-2.594,-2.5939,-2.5934,-2.592,-2.5904,-2.5921,-2.5924,-2.5925,-2.5902,-2.5902,-2.5901,-2.5901,0,0,-2.6196,-2.6157,-2.6157,-2.6145,-2.6115,-2.6105,-2.6096,-2.6075,-2.6067,-2.6047,-2.6037,-2.6013,-2.6,-2.5985,-2.5965,-2.5961,-2.5971,-2.5946,-2.5945,-2.5952,-2.5967,-2.5978,-2.598,-2.5959,-2.5959,-2.5959,-2.5969,0,-2.621,-2.6194,-2.6171,-2.6162,-2.615,-2.6124,-2.6115,-2.6095,-2.6077,-2.6063,-2.6042,-2.6026,-2.601,-2.6001,-2.5995,-2.5972,-2.5974,-2.597,-2.5947,-2.5947,-2.5955,-2.5981,-2.5992,-2.6003,-2.597,-2.597,-2.597,0,-2.6225,-2.6208,-2.6198,-2.617,-2.6165,-2.6158,-2.6136,-2.6124,-2.61,-2.6087,-2.6071,-2.6051,-2.6037,-2.6024,-2.6004,-2.6002,-2.5991,-2.5978,-2.5978,-2.5974,-2.596,-2.5977,-2.6006,-2.6008,-2.5972,-2.5972,-2.5971,0,-2.6253,-2.6229,-2.622,-2.621,-2.6177,-2.6173,-2.6158,-2.6134,-2.6123,-2.6104,-2.6096,-2.6074,-2.6062,-2.6045,-2.6019,-2.6011,-2.6001,-2.5985,-2.5989,-2.5989,-2.5987,-2.5988,-2.6014,-2.5981,-2.5981,-2.5981,-2.5981,0,-2.6272,-2.6266,-2.6232,-2.6227,-2.6219,-2.6193,-2.6186,-2.6169,-2.6148,-2.6137,-2.6111,-2.6101,-2.6067,-2.6052,-2.6031,-2.6017,-2.6012,-2.6,-2.5994,-2.6002,-2.6003,-2.5994,-2.5992,-2.5982,-2.5982,-2.5982,-2.5981,0,-2.6302,-2.628,-2.6268,-2.6238,-2.623,-2.6226,-2.62,-2.6192,-2.6173,-2.616,-2.6155,-2.6124,-2.6105,-2.6077,-2.6049,-2.6035,-2.6024,-2.6015,-2.6033,-2.6029,-2.6034,-2.6034,-2.6054,-2.6055,-2.6023,-2.6024,-2.6024,0,-2.6315,-2.6311,-2.6281,-2.6273,-2.6261,-2.6248,-2.6237,-2.621,-2.6199,-2.6172,-2.6167,-2.6147,-2.613,-2.61,-2.6074,-2.6052,-2.6042,-2.6051,-2.6038,-2.6046,-2.6041,-2.6042,-2.6041,-2.6054,-2.6054,-2.6054,-2.6055,0,-2.634,-2.6329,-2.6316,-2.6298,-2.6286,-2.627,-2.6253,-2.6247,-2.6216,-2.6204,-2.6186,-2.6173,-2.6146,-2.6125,-2.61,-2.6083,-2.6063,-2.6059,-2.6059,-2.6066,-2.6076,-2.607,-2.604,-2.6059,-2.6058,-2.6058,-2.6058,-2.6058,-2.6362,-2.6357,-2.6336,-2.6321,-2.6305,-2.629,-2.6282,-2.6262,-2.6247,-2.6224,-2.6209,-2.6191,-2.6166,-2.6131,-2.6115,-2.6099,-2.6091,-2.609,-2.609,-2.609,-2.6093,-2.608,-2.6095,-2.6094,-2.6094,-2.6094,-2.6094,0,-2.6385,-2.6371,-2.6357,-2.6335,-2.6323,-2.6308,-2.6288,-2.6278,-2.6264,-2.6244,-2.6228,-2.6206,-2.6187,-2.6159,-2.6137,-2.613,-2.612,-2.6124,-2.6124,-2.612,-2.6102,-2.6104,-2.6133,-2.6133,-2.6133,-2.6133,-2.6133,-2.6133,-2.6396,-2.6387,-2.6373,-2.6355,-2.634,-2.6324,-2.6314,-2.6299,-2.6283,-2.6261,-2.6245,-2.6228,-2.6205,-2.6181,-2.6161,-2.6153,-2.6146,-2.6153,-2.6142,-2.6125,-2.6122,-2.6118,-2.6121,-2.6152,-2.6152,-2.6162,-2.6162,-2.6162]}]]